Flag for Germany Weather for the Past 2 Weeks in Neustadt an der Weinstraße, Rhineland-Palatinate, Germany

Now
59 °F

Passing clouds.


Feels Like: 60 °F
Forecast: 36 / 58 °F
Wind: 3 mph from North

Location: Mannheim City

Current Time: May 3, 2016 at 10:51:47 AM

Latest Report: May 3, 2016 at 9:50 AM


Visibility: N/A

Pressure: 30.09 "Hg

Humidity: 63%

Dew Point: 46 °F

Location of Neustadt an der WeinstraßeLocation

Historic Weather in Neustadt an der Weinstraße — Graph

°F

Neustadt an der Weinstraße Temperature Yesterday

Maximum temperature yesterday: 68 °F (at 2:50 PM)
Minimum temperature yesterday: 46 °F (at 5:50 AM)
Average temperature yesterday: 62 °F

High & Low Weather Summary for the Past Weeks

 TemperatureHumidityPressure
High72 °F (Apr 21, 4:50 PM)100% (Apr 19, 6:50 AM)30.42 "Hg (Apr 19, 6:50 AM)
Low36 °F (Apr 25, 6:50 AM)23% (Apr 21, 4:50 PM)29.59 "Hg (Apr 26, 5:50 AM)
Average52 °F58%30.04 "Hg
* Reported Apr 18 9:50 AM — May 3 9:20 AM, Neustadt an der Weinstraße, Weather by CustomWeather, © 2016

Note: Actual official high and low records may vary slightly from our data, if they occured in-between our weather recording intervals... More about our weather records

Advertising

Neustadt an der Weinstraße Weather History for the Previous 24 Hours

Scroll right to see more
 ConditionsComfort  
Time TempWeatherWind HumidityBarometerVisibility
9:20 AM
Tue, May 3
55 °FPassing clouds.5 mph67%30.12 "HgN/A
8:50 AM55 °FPartly sunny.2 mph67%30.09 "HgN/A
8:20 AM52 °FSunny.3 mph77%30.09 "Hg10 mi
7:50 AM52 °FSunny.2 mph77%30.09 "Hg10 mi
7:20 AM48 °FSunny.3 mph82%30.09 "Hg10 mi
6:50 AM48 °FClear.3 mph82%30.09 "Hg10 mi
6:20 AM48 °FClear.3 mph82%30.09 "Hg10 mi
5:50 AM48 °FPassing clouds.3 mph87%30.09 "HgN/A
5:20 AM46 °FPassing clouds.No wind93%30.09 "HgN/A
8:50 PM
Mon, May 2
63 °FSunny.5 mph42%30.09 "Hg10 mi
8:20 PM64 °FSunny.5 mph40%30.09 "Hg10 mi
7:50 PM66 °FSunny.6 mph37%30.09 "Hg10 mi
7:20 PM68 °FSunny.9 mph33%30.09 "Hg10 mi
6:50 PM68 °FPassing clouds.9 mph35%30.09 "HgN/A
6:20 PM68 °FSunny.3 mph30%30.09 "Hg10 mi
5:50 PM68 °FSunny.6 mph33%30.09 "Hg10 mi
5:20 PM68 °FSunny.3 mph30%30.12 "Hg10 mi
4:50 PM68 °FPassing clouds.6 mph33%30.12 "HgN/A
4:20 PM68 °FPassing clouds.7 mph33%30.12 "HgN/A
3:50 PM68 °FPassing clouds.8 mph33%30.12 "HgN/A
3:20 PM68 °FPassing clouds.7 mph35%30.15 "HgN/A
2:50 PM68 °FPassing clouds.7 mph33%30.15 "HgN/A
2:20 PM66 °FSunny.6 mph35%30.15 "Hg10 mi
1:50 PM66 °FPassing clouds.8 mph32%30.18 "HgN/A
1:20 PM66 °FPassing clouds.7 mph35%30.18 "HgN/A
12:50 PM64 °FPassing clouds.7 mph34%30.18 "HgN/A
12:20 PM64 °FSunny.6 mph34%30.21 "Hg10 mi
11:50 AM63 °FSunny.3 mph39%30.21 "Hg10 mi
11:20 AM61 °FPassing clouds.7 mph52%30.21 "HgN/A
10:50 AM61 °FPassing clouds.5 mph45%30.24 "HgN/A
10:20 AM61 °FPassing clouds.6 mph48%30.24 "HgN/A
Weather by CustomWeather, © 2016

See weather overviewHow to use our weather pages